Find Starlink 3207

NORAD ID: 49756 Int'l Des: 2021-115 Owner: SPXS Country: US Constellation: starlink operational
LEOCIRCULAR

当前视图

正在加载3D地球...

About Starlink 3207

Starlink 3207 (NORAD 49756) is a starlink constellation satellite (v1.5) launched Dec 2, 2021 by SPXS of US. It operates in LEO, CIRCULAR orbit with a mass of 290.00 kg.

关于 Starlink 3207

正在加载描述...

即将过境

Passes for default location (London). Set your location on the main map for personalized predictions.

高度历史

Loading altitude history...

两行轨道根数

1 49756U 21115AJ 26171.02799493 -.00000024 00000-0 16558-4 0 9997
2 49756 53.1596 39.5928 0001248 87.8079 272.3055 15.08836506251129
Epoch: Jun 20, 2026 • Age: 14 hours

当前状态

高度 542.8 km
速度 7.59 km/s
星下点 -10.48°S, 103.66°W
发射日期 Dec 2, 2021
运行时间 4.5 years
类型 internet

技术详情

分类 Payload
质量 290.00 kg
干质量 270.00 kg
总质量 290.00 kg
长度 0.20 m
直径 2.80 m
跨度 9.00 m
形状 Box + pan
制造商 SPXS
平台类型 Starlink
阶段状态 In Orbit
所有者/国家 SPXS/US

Most Searched